Terminal Aerodrome Forecast
Issued by NWS

Home | Current Version | Previous Version | Text Only | Print | Product List | Glossary On
Versions: 1 2 3 4 5 6 7 8 9 10 11 12 13 14 15 16 17 18 19 20 21 22 23 24 25 26 27 28 29 30 31 32
000
FTUS46 KOTX 262333
TAFMWH
TAF
KMWH 262333Z 2700/2724 23003KT 1/2SM FG OVC002
     FM270300 VRB04KT 1 1/2SM BR OVC004
     FM271200 20006KT 1 1/2SM BR OVC001
     FM271500 20007KT 4SM BR OVC001
     FM272100 20014KT P6SM OVC250=

USA.gov is the U.S. government's official web portal to all federal, state and local government web resources and services.